Location: Tehachapi Municipal Airport
(35.1300°N, 118.4400°W)
Time: 09:18:53
(UTC-07:00)

Daily predictions for brighter satellites

Satellite Brightness Start Highest point End
(mag) Time Altitude Azimuth Time Altitude Azimuth Time Altitude Azimuth
OAO 2 Rocket 3.9 20:34:58 10° SW 20:39:57 42° SSE 20:44:58 10° E
Cosmos 1553 Rocket 4.1 20:33:57 10° N 20:40:18 67° E 20:46:32 10° SSE
AVUM R/B 3.3 20:38:39 10° SW 20:40:52 54° WNW 20:43:17 10° NNE
Tiangong 1 0.9 20:41:03 10° SW 20:44:10 73° SSE 20:47:15 10° ENE
H-2A R/B 3.2 20:40:15 10° SE 20:44:11 30° ENE 20:48:07 10° N
ALOS 2.5 20:39:54 10° S 20:44:34 77° W 20:49:15 10° NNW
Meteor 1-21 Rocket 4.2 20:39:04 10° S 20:44:35 78° E 20:50:07 10° NNE
Cosmos 1777 Rocket 4.1 20:39:31 10° SSW 20:44:47 89° WNW 20:50:04 10° NNE
YAOGAN 11 4.2 20:41:39 10° SSE 20:45:53 60° ENE 20:50:11 10° N
NOSS 3-1 (C) 3.8 20:41:04 10° S 20:46:19 38° ESE 20:51:58 10° NE
Cosmos 1328 Rocket 3.6 20:42:14 10° N 20:46:42 78° E 20:51:06 10° S
Cosmos 371 Rocket 3.7 20:42:05 10° NNW 20:46:51 65° WSW 20:51:36 10° S
Cosmos 1441 Rocket 3.4 20:48:53 10° SSW 20:52:39 72° W 20:56:24 10° N
Cosmos 2219 3.5 20:49:30 10° S 20:54:58 47° ESE 21:00:27 10° NNE
Cosmos 2292 4.4 20:57:41 10° N 21:00:45 86° W 21:04:21 10° S
DELTA 2 R/B (1) 3.6 20:58:35 10° WNW 21:04:10 82° NNE 21:09:25 12° ESE
Cosmos 2322 Rocket 3.2 21:00:45 10° NW 21:06:05 46° WSW 21:11:24 10° S
Cosmos 1500 Rocket 4.1 21:02:50 10° SSW 21:07:09 62° W 21:11:32 10° N
Cosmos 2322 3.9 21:01:51 10° NNW 21:07:31 58° ENE 21:12:28 13° SE
Cosmos 405 3.1 21:05:16 10° N 21:08:51 58° E 21:12:01 13° SSE
CZ-4 DEB 4.0 21:08:04 10° S 21:11:07 40° W 21:14:09 10° NNW
Cosmos 2360 Rocket 2.2 21:08:44 10° NNW 21:14:23 69° ENE 21:19:13 14° SSE
SL-16 R/B 3.5 21:13:12 10° NW 21:18:24 38° WSW 21:23:35 10° S
Cosmos 1908 3.2 21:15:40 10° N 21:19:36 86° WSW 21:23:23 11° S
Cosmos 1674 3.1 21:16:10 10° SSW 21:19:58 67° W 21:23:49 10° N
H-2A R/B 4.2 21:18:57 10° ENE 21:20:21 11° ENE 21:21:47 10° NE
SJ-11-01 4.4 21:15:46 10° S 21:20:28 76° WSW 21:25:13 10° NNW
Cosmos 1680 Rocket 3.6 21:15:21 10° NNW 21:20:35 66° ENE 21:24:44 16° SSE
Cosmos 304 Rocket 3.7 21:17:22 10° NNW 21:22:11 74° ENE 21:25:55 17° SSE
Delta 2 Rocket 2.9 21:19:17 10° W 21:23:01 80° N 21:25:46 15° E
SPOT 5 3.1 21:21:14 17° SE 21:24:29 50° ENE 21:29:08 10° N
Cosmos 2151 2.9 21:21:02 10° S 21:25:13 89° E 21:29:27 10° N
Cosmos 923 Rocket 4.0 21:20:25 10° NNW 21:25:38 83° WSW 21:30:09 14° SSE
YAOGAN 6 3.9 21:24:39 20° ESE 21:26:05 25° ENE 21:29:06 10° NNE
Cosmos 1898 Rocket 3.8 21:24:47 10° S 21:29:40 45° ESE 21:34:37 10° NNE
deb Chang Zheng 4 4.2 21:27:35 10° N 21:31:51 58° WNW 21:36:06 10° SSW
SPOT 1/Viking Rocket 4.4 21:29:28 19° ESE 21:32:18 33° ENE 21:36:53 10° N
Cosmos 2058 2.8 21:31:09 14° S 21:34:32 65° E 21:38:36 10° NNE
Cosmos 1300 3.3 21:33:52 10° N 21:37:31 40° E 21:38:53 29° SE
Cosmos 2227 Rocket 3.1 21:37:26 22° SE 21:39:18 27° ESE 21:43:57 10° NE
SWAS 4.4 21:35:28 10° NNW 21:39:49 84° ENE 21:42:11 26° SSE
Cosmos 2150 Rocket 4.1 21:34:51 10° S 21:40:10 61° ESE 21:45:34 10° NNE
Cosmos 1437 4.1 21:38:27 10° SSW 21:41:33 40° W 21:44:41 10° N
Sich 1 3.4 21:40:01 25° SSE 21:42:14 46° E 21:46:27 10° NNE
Meteor 1-11 4.2 21:41:14 11° S 21:46:44 73° E 21:52:26 10° NNE
Cosmos 1633 Rocket 3.3 21:45:26 28° SSE 21:47:25 50° E 21:51:39 10° NNE
Hubble Space Telescope 2.4 21:45:38 10° SW 21:47:42 19° S 21:47:42 19° S
NOSS 3-1 (A) 3.3 21:44:55 10° SSW 21:50:43 88° WNW 21:57:06 10° NNE
Cosmos 1151 Rocket 4.2 21:47:11 10° NNW 21:51:15 41° W 21:55:08 11° SSW
USA 245 3.6 21:52:56 26° NE 21:52:56 26° NE 21:54:27 10° N
MetOp-A 4.1 21:53:41 25° SSE 21:56:56 88° ENE 22:02:18 10° NNW
SL-16 R/B 4.5 21:56:12 10° NE 21:57:16 10° NE 21:58:20 10° ENE
ERBS 2.3 21:55:20 20° SSW 21:57:35 62° SE 22:01:03 10° NE
Cosmos 2333 Rocket 3.4 21:54:10 10° N 21:59:07 29° ENE 22:01:24 22° E
Cosmos 1939 Rocket 4.3 21:56:28 13° SSW 21:59:32 32° W 22:03:03 10° NNW
Cosmos 1455 4.2 21:57:22 10° NE 21:59:30 16° ENE 21:59:30 16° ENE
H-2A R/B 3.7 21:59:36 10° SW 22:03:31 44° SSE 22:22:15 10° E
Cosmos 1805 Rocket 4.1 21:59:44 12° SSW 22:03:44 57° W 22:08:07 10° N
ARGOS 3.3 22:03:47 34° SE 22:06:04 60° ENE 22:11:22 10° N
Cosmos 2297 Rocket 2.9 22:05:32 31° ESE 22:06:04 31° ESE 22:10:59 10° NE
Terra 3.2 22:05:35 22° E 22:06:30 24° ENE 22:10:15 10° NNE
Envisat 3.9 22:02:46 15° SSW 22:06:41 43° W 22:11:31 10° NNW
CZ-4 SHROUD 4.3 22:07:31 32° SW 22:08:21 40° W 22:11:20 10° NNW
OTV 4 1.4 22:05:24 10° WSW 22:07:20 36° WSW 22:07:20 36° WSW
COSMOS 2428 2.7 22:05:24 10° NNW 22:11:06 83° WSW 22:13:39 34° SSE
Cosmos 1726 2.1 22:08:39 10° N 22:12:26 88° W 22:13:08 58° S
ATLAS 2AS CENTAUR R/B 3.0 22:06:56 15° S 22:12:50 53° ESE 22:20:29 10° NE
Cosmos 2219 Rocket 2.5 22:09:14 10° N 22:14:40 50° ENE 22:16:27 37° ESE
USA 32 4.0 22:10:58 10° N 22:16:12 66° E 22:17:50 43° SSE
SL-08 RB Rocket 3.7 22:17:05 50° SE 22:18:01 64° ENE 22:22:28 10° N
Cosmos 220 Rocket 4.0 22:17:45 29° SSW 22:19:54 79° WNW 22:24:21 10° NNE
H-2A R/B 4.3 22:16:41 10° SW 22:20:09 21° W 22:23:37 10° NW
Tiangong 1 3.3 22:18:17 10° WNW 22:20:56 25° NNW 22:23:06 13° NE
OAO 2 Rocket 3.3 22:19:17 10° W 22:24:37 83° S 22:27:04 33° E
Cosmos 1707 Rocket 4.3 22:21:43 10° NNW 22:25:55 47° W 22:27:35 31° SSW
Cosmos 1937 Rocket 3.7 22:22:42 17° SSW 22:26:42 70° WNW 22:31:54 10° NNE
ATLAS 3B R/B 4.1 22:23:24 10° N 22:29:09 26° NE 22:32:31 18° E
Meteor 1-4 Rocket 2.6 22:26:11 10° NNW 22:29:55 77° W 22:29:55 77° W
CZ-4C R/B 3.5 22:33:07 53° NNE 22:33:07 53° NNE 22:36:00 10° N
Cosmos 1241 Rocket 4.4 22:28:54 10° SSW 22:35:04 84° WNW 22:41:21 10° NNE
Cosmos 1980 4.0 22:30:08 10° NNW 22:35:40 54° ENE 22:36:52 46° ESE
Cosmos 990 Rocket 3.9 22:33:34 36° SSW 22:35:43 83° WNW 22:40:54 10° NNE
Meteor 2-10 4.1 22:32:16 10° N 22:38:02 86° E 22:39:35 51° SSE
CZ-4 R/B 4.4 22:33:14 10° N 22:38:03 57° WNW 22:40:30 27° SW
Cosmos 1271 Rocket 2.9 22:35:07 10° NNW 22:38:57 64° W 22:39:00 64° WSW
Cosmos 1470 Rocket 3.4 22:39:44 72° SSW 22:40:08 82° W 22:44:28 10° N
Cosmos 1933 Rocket 3.5 22:40:44 70° SSW 22:41:13 84° W 22:45:42 10° N
Iridium 2 4.1 22:43:31 58° W 22:43:35 58° W 22:47:23 10° N
Cosmos 1703 4.2 22:43:17 39° WSW 22:44:00 44° W 22:47:45 10° N
Cosmos 2237 Rocket 2.3 22:42:18 10° NNW 22:47:58 64° ENE 22:48:54 55° ESE
Cosmos 2082 3.8 22:46:37 30° SSW 22:49:35 74° WNW 22:55:20 10° NNE
Cosmos 1626 2.7 22:50:49 56° N 22:50:49 56° N 22:53:53 10° N
Nadezhda 1 Rocket 3.8 22:44:06 10° N 22:50:14 88° E 22:51:47 54° S
DELTA 2 R/B (1) 4.4 22:45:23 10° W 22:50:10 34° SW 22:50:10 34° SW
Cosmos 192 4.5 22:49:53 10° N 22:54:45 58° ENE 22:54:46 58° ENE
H-2A R/B 2.0 22:58:13 69° S 22:58:56 86° W 23:04:23 10° NNW
NOSS 0 Rocket 3.9 22:58:09 10° NNW 23:04:17 71° WSW 23:05:23 58° SSW
SeaSat 1 4.4 23:06:12 17° ENE 23:07:02 18° NE 23:10:18 10° NNE
Cosmos 1709 Rocket 3.8 23:07:14 66° SE 23:07:59 75° E 23:14:05 10° N
Lacrosse 4 Rocket 2.9 23:07:43 10° N 23:11:13 31° NE 23:11:13 31° NE
NOSS 2-3 (C) 4.5 23:16:25 47° ENE 23:16:25 47° ENE 23:20:25 10° NE
Cosmos 1125 Rocket 3.4 23:17:24 82° W 23:17:31 83° WNW 23:22:51 10° NNE
Cosmos 1048 Rocket 4.5 23:16:23 10° N 23:21:25 51° ENE 23:21:25 51° ENE
CARTOSAT-1 4.5 23:22:23 43° WNW 23:22:23 43° WNW 23:25:58 10° NNW
Cosmos 2227 Rocket 3.5 23:19:10 16° WSW 23:23:08 36° WNW 23:28:19 10° N
Cosmos 1455 4.3 23:32:20 10° NW 23:34:33 23° WNW 23:34:33 23° WNW
NOSS 2-3 (D) 4.2 23:37:09 61° NNE 23:37:09 61° NNE 23:41:42 10° NNE
Cosmos 372 Rocket 4.2 23:38:19 63° NNE 23:38:19 63° NNE 23:42:43 10° NNE
Cosmos 44 Rocket 3.8 23:41:13 60° NNE 23:41:13 60° NNE 23:45:30 10° NNE
COSMOS 2455 2.7 23:34:17 10° NNW 23:40:18 80° ENE 23:40:18 80° ENE
Cosmos 2181 Rocket 3.9 23:34:52 10° N 23:41:18 83° W 23:41:44 77° SSW
SL-16 R/B 2.2 23:36:34 10° NNW 23:41:56 76° NNE 23:41:56 76° NNE
Cosmos 2333 Rocket 3.2 23:38:12 10° NW 23:43:22 35° WSW 23:43:25 35° WSW
Terra 3.2 23:44:28 30° W 23:44:28 30° W 23:48:14 10° NW
Cosmos 2184 Rocket 4.1 23:46:39 61° ENE 23:46:39 61° ENE 23:52:23 10° NNE
Cosmos 2297 Rocket 3.7 23:47:17 21° WSW 23:50:00 31° WNW 23:55:00 10° N
